Flag for Brazil Weather past 2 weeks in Maceió, Alagoas, Brazil

Now
68 °F

Passing clouds.


Feels Like: 68 °F
Forecast: 75 / 84 °F
Wind: 3 mph from North

Location: Maceio Aeroporto

Current Time: Oct 24, 2014 at 5:59:58 AM

Latest Report: Oct 24, 2014 at 5:00 AM


Visibility: N/A

Pressure: 29.95 "Hg

Humidity: 100%

Dew point: 68 °F

Location of MaceióLocation

Historic Weather in Maceió — Graph

°F

Maceió temperature yesterday

Maximum temperature yesterday: 81 °F (at 12:00 PM)
Minimum temperature yesterday: 70 °F (at 6:00 AM)
Average temperature yesterday: 75 °F

Past Weeks' High & Low Weather Summary

 TemperatureHumidityPressure
High82 °F (Oct 13, 11:00 AM)100% (Oct 11, 12:00 AM)30.09 "Hg (Oct 11, 12:00 AM)
Low64 °F (Oct 16, 3:00 AM)55% (Oct 13, 11:00 AM)29.89 "Hg (Oct 20, 1:00 PM)
Average73 °F83%30.01 "Hg
* Reported Oct 9 5:00 AM — Oct 24 5:00 AM, Maceió, Weather by CustomWeather, © 2014

Note: Actual official high and low records may vary slightly from our data, if they occured in-between our weather recording intervals... More about our weather records

Advertising

Maceió weather history for previous 24 hours

 ConditionsComfort  
Time TempWeatherWind HumidityBarometerVisibility
5:00 AM
Oct 24
68 °FPassing clouds.3 mph100%29.95 "HgN/A
4:00 AM70 °FPassing clouds.No wind94%29.95 "HgN/A
3:00 AM70 °FPassing clouds.6 mph94%29.95 "HgN/A
2:00 AM70 °FPassing clouds.5 mph94%29.95 "HgN/A
1:00 AM70 °FPassing clouds.3 mph94%29.98 "HgN/A
12:00 AM70 °FPassing clouds.No wind100%29.98 "HgN/A
11:00 PM
Oct 23
70 °FPassing clouds.3 mph94%30.01 "HgN/A
10:00 PM70 °FPassing clouds.3 mph94%30.04 "HgN/A
9:00 PM70 °FPassing clouds.5 mph94%30.04 "HgN/A
8:00 PM70 °FPassing clouds.6 mph94%30.01 "HgN/A
7:00 PM72 °FPassing clouds.7 mph88%29.98 "HgN/A
6:00 PM75 °FScattered clouds.7 mph78%29.98 "HgN/A
5:00 PM77 °FScattered clouds.12 mph74%29.98 "HgN/A
4:00 PM79 °FScattered clouds.12 mph65%29.95 "HgN/A
3:00 PM81 °FScattered clouds.13 mph62%29.95 "HgN/A
2:00 PM81 °FScattered clouds.5 mph62%29.98 "HgN/A
1:00 PM79 °FScattered clouds.13 mph70%29.98 "HgN/A
12:00 PM81 °FBroken clouds.15 mph66%30.01 "HgN/A
11:00 AM77 °FBroken clouds.17 mph79%30.04 "HgN/A
10:00 AM77 °FBroken clouds.15 mph79%30.04 "Hg6 mi
9:00 AM77 °FPartly sunny.13 mph79%30.04 "HgN/A
8:00 AM77 °FScattered clouds.10 mph83%30.04 "HgN/A
7:00 AM72 °FLight rain. Broken clouds.8 mph94%30.04 "Hg2 mi
6:00 AM70 °FLight rain. Fog.3 mph100%N/A2 mi
5:00 AM72 °FPassing clouds.3 mph94%30.01 "HgN/A
Weather by CustomWeather, © 2014

See weather overviewHow to use our weather pages